Time,TemperatureF,DewpointF,PressureIn,WindDirection,WindDirectionDegrees,WindSpeedMPH,WindSpeedGustMPH,Humidity,HourlyPrecipIn,Conditions,Clouds,dailyrainin,SoftwareType,DateUTC
2013-02-20 00:01:00,6.0,-1.0,30.23,SE,126,19.0,-999.0,72,-99.99,,,-99.99,,2013-02-20 07:01:00,
2013-02-20 00:11:00,6.0,-1.0,30.23,SE,126,19.0,-999.0,72,-99.99,,,-99.99,,2013-02-20 07:11:00,
2013-02-20 00:21:00,6.0,-1.0,30.22,SE,127,17.0,-999.0,72,-99.99,,,-99.99,,2013-02-20 07:21:00,
2013-02-20 00:31:00,5.0,-2.0,30.22,SE,130,17.0,-999.0,72,-99.99,,,-99.99,,2013-02-20 07:31:00,
2013-02-20 00:41:00,5.0,-2.0,30.22,SE,130,17.0,-999.0,72,-99.99,,,-99.99,,2013-02-20 07:41:00,
2013-02-20 00:51:00,5.0,-2.0,30.22,ESE,116,15.0,-999.0,72,-99.99,,,-99.99,,2013-02-20 07:51:00,
2013-02-20 01:05:00,5.0,-2.0,30.22,ESE,123,13.0,-999.0,73,-99.99,,,-99.99,,2013-02-20 08:05:00,
2013-02-20 01:11:00,5.0,-2.0,30.22,ESE,123,13.0,-999.0,73,-99.99,,,-99.99,,2013-02-20 08:11:00,
2013-02-20 01:21:00,5.0,-2.0,30.22,ESE,122,12.0,-999.0,72,-99.99,,,-99.99,,2013-02-20 08:21:00,
2013-02-20 01:31:00,5.0,0.0,30.22,SE,130,11.0,-999.0,80,-99.99,,,-99.99,,2013-02-20 08:31:00,
2013-02-20 01:41:00,5.0,0.0,30.22,SE,130,11.0,-999.0,80,-99.99,,,-99.99,,2013-02-20 08:41:00,
2013-02-20 01:52:00,4.0,-3.0,30.22,ESE,119,12.0,-999.0,72,-99.99,,,-99.99,,2013-02-20 08:52:00,
2013-02-20 02:01:00,5.0,-3.0,30.21,SE,130,13.0,-999.0,70,-99.99,,,-99.99,,2013-02-20 09:01:00,
2013-02-20 02:11:00,5.0,-3.0,30.21,SE,130,13.0,-999.0,70,-99.99,,,-99.99,,2013-02-20 09:11:00,
2013-02-20 02:21:00,6.0,-3.0,30.22,ESE,121,14.0,-999.0,67,-99.99,,,-99.99,,2013-02-20 09:21:00,
2013-02-20 02:31:00,6.0,-3.0,30.21,ESE,119,12.0,-999.0,67,-99.99,,,-99.99,,2013-02-20 09:31:00,
2013-02-20 02:42:00,6.0,-3.0,30.21,ESE,119,12.0,-999.0,67,-99.99,,,-99.99,,2013-02-20 09:42:00,
2013-02-20 02:51:00,5.0,-3.0,30.20,ESE,116,10.0,-999.0,68,-99.99,,,-99.99,,2013-02-20 09:51:00,
2013-02-20 03:01:00,5.0,-3.0,30.19,SE,130,13.0,-999.0,68,-99.99,,,-99.99,,2013-02-20 10:01:00,
2013-02-20 03:12:00,5.0,-3.0,30.19,SE,130,13.0,-999.0,68,-99.99,,,-99.99,,2013-02-20 10:12:00,
2013-02-20 03:22:00,6.0,-2.0,30.19,SE,132,14.0,-999.0,68,-99.99,,,-99.99,,2013-02-20 10:22:00,
2013-02-20 03:31:00,6.0,-2.0,30.18,SE,134,16.0,-999.0,68,-99.99,,,-99.99,,2013-02-20 10:31:00,
2013-02-20 03:42:00,6.0,-2.0,30.18,SE,134,16.0,-999.0,68,-99.99,,,-99.99,,2013-02-20 10:42:00,
2013-02-20 03:52:00,6.0,-2.0,30.19,SE,126,14.0,-999.0,68,-99.99,,,-99.99,,2013-02-20 10:52:00,
2013-02-20 04:02:00,5.0,-3.0,30.18,SE,132,16.0,-999.0,68,-99.99,,,-99.99,,2013-02-20 11:02:00,
2013-02-20 04:11:00,5.0,-3.0,30.18,ESE,121,11.0,-999.0,68,-99.99,,,-99.99,,2013-02-20 11:11:00,
2013-02-20 04:21:00,5.0,-3.0,30.18,ESE,121,11.0,-999.0,68,-99.99,,,-99.99,,2013-02-20 11:21:00,
2013-02-20 04:32:00,5.0,-3.0,30.17,SE,124,11.0,-999.0,69,-99.99,,,-99.99,,2013-02-20 11:32:00,
2013-02-20 04:42:00,5.0,-3.0,30.17,SE,124,11.0,-999.0,69,-99.99,,,-99.99,,2013-02-20 11:42:00,
2013-02-20 04:52:00,5.0,-3.0,30.17,ESE,119,11.0,-999.0,69,-99.99,,,-99.99,,2013-02-20 11:52:00,
2013-02-20 05:01:00,4.0,-4.0,30.16,SE,128,14.0,-999.0,70,-99.99,,,-99.99,,2013-02-20 12:01:00,
2013-02-20 05:12:00,4.0,-4.0,30.16,SE,128,14.0,-999.0,70,-99.99,,,-99.99,,2013-02-20 12:12:00,
2013-02-20 05:21:00,4.0,-3.0,30.16,SE,129,13.0,-999.0,71,-99.99,,,-99.99,,2013-02-20 12:21:00,
2013-02-20 05:32:00,4.0,-3.0,30.16,ESE,122,13.0,-999.0,71,-99.99,,,-99.99,,2013-02-20 12:32:00,
2013-02-20 05:42:00,4.0,-3.0,30.16,ESE,122,13.0,-999.0,71,-99.99,,,-99.99,,2013-02-20 12:42:00,
2013-02-20 05:53:00,4.0,-3.0,30.16,SE,130,14.0,-999.0,71,-99.99,,,-99.99,,2013-02-20 12:53:00,
2013-02-20 06:01:00,4.0,-3.0,30.16,SE,131,14.0,-999.0,71,-99.99,,,-99.99,,2013-02-20 13:01:00,
2013-02-20 06:11:00,4.0,-3.0,30.16,SE,131,14.0,-999.0,71,-99.99,,,-99.99,,2013-02-20 13:11:00,
2013-02-20 06:22:00,3.0,-4.0,30.16,ESE,119,11.0,-999.0,71,-99.99,,,-99.99,,2013-02-20 13:22:00,
2013-02-20 06:31:00,3.0,-4.0,30.16,ESE,121,11.0,-999.0,71,-99.99,,,-99.99,,2013-02-20 13:31:00,
2013-02-20 06:42:00,3.0,-4.0,30.16,ESE,121,11.0,-999.0,71,-99.99,,,-99.99,,2013-02-20 13:42:00,
2013-02-20 06:52:00,3.0,-4.0,30.16,ESE,118,11.0,-999.0,72,-99.99,,,-99.99,,2013-02-20 13:52:00,
2013-02-20 07:01:00,3.0,-4.0,30.17,ESE,123,11.0,-999.0,72,-99.99,,,-99.99,,2013-02-20 14:01:00,
2013-02-20 07:11:00,3.0,-4.0,30.17,ESE,123,11.0,-999.0,72,-99.99,,,-99.99,,2013-02-20 14:11:00,
2013-02-20 07:21:00,3.0,-4.0,30.17,ESE,123,10.0,-999.0,72,-99.99,,,-99.99,,2013-02-20 14:21:00,
2013-02-20 07:32:00,2.0,-5.0,30.17,ESE,119,8.0,-999.0,72,-99.99,,,-99.99,,2013-02-20 14:32:00,
2013-02-20 07:42:00,2.0,-5.0,30.17,ESE,119,8.0,-999.0,72,-99.99,,,-99.99,,2013-02-20 14:42:00,
2013-02-20 07:52:00,2.0,-5.0,30.17,SE,124,9.0,-999.0,73,-99.99,,,-99.99,,2013-02-20 14:52:00,
2013-02-20 08:01:00,3.0,-4.0,30.17,ESE,123,9.0,-999.0,73,-99.99,,,-99.99,,2013-02-20 15:01:00,
2013-02-20 08:11:00,3.0,-4.0,30.17,ESE,123,9.0,-999.0,73,-99.99,,,-99.99,,2013-02-20 15:11:00,
2013-02-20 08:22:00,3.0,-4.0,30.17,ESE,118,8.0,-999.0,73,-99.99,,,-99.99,,2013-02-20 15:22:00,
2013-02-20 08:32:00,4.0,-3.0,30.17,ESE,119,8.0,-999.0,73,-99.99,,,-99.99,,2013-02-20 15:32:00,
2013-02-20 08:42:00,4.0,-3.0,30.17,ESE,119,8.0,-999.0,73,-99.99,,,-99.99,,2013-02-20 15:42:00,
2013-02-20 08:52:00,4.0,-3.0,30.17,ESE,117,11.0,-999.0,72,-99.99,,,-99.99,,2013-02-20 15:52:00,
2013-02-20 09:01:00,5.0,-2.0,30.17,ESE,117,11.0,-999.0,72,-99.99,,,-99.99,,2013-02-20 16:01:00,
2013-02-20 09:12:00,5.0,-2.0,30.17,ESE,117,11.0,-999.0,72,-99.99,,,-99.99,,2013-02-20 16:12:00,
2013-02-20 09:21:00,6.0,-1.0,30.17,SE,125,13.0,-999.0,71,-99.99,,,-99.99,,2013-02-20 16:21:00,
2013-02-20 09:32:00,6.0,-2.0,30.17,SE,127,14.0,-999.0,70,-99.99,,,-99.99,,2013-02-20 16:32:00,
2013-02-20 09:42:00,6.0,-2.0,30.17,SE,127,14.0,-999.0,70,-99.99,,,-99.99,,2013-02-20 16:42:00,
2013-02-20 09:52:00,6.0,-1.0,30.17,SE,130,15.0,-999.0,71,-99.99,,,-99.99,,2013-02-20 16:52:00,
2013-02-20 10:01:00,7.0,-1.0,30.17,SE,138,14.0,-999.0,70,-99.99,,,-99.99,,2013-02-20 17:01:00,
2013-02-20 10:11:00,7.0,-1.0,30.17,SE,133,14.0,-999.0,70,-99.99,,,-99.99,,2013-02-20 17:11:00,
2013-02-20 10:21:00,7.0,-1.0,30.17,SE,133,14.0,-999.0,70,-99.99,,,-99.99,,2013-02-20 17:21:00,
2013-02-20 10:32:00,7.0,-1.0,30.17,SE,133,14.0,-999.0,70,-99.99,,,-99.99,,2013-02-20 17:32:00,
2013-02-20 10:42:00,7.0,-1.0,30.17,SE,133,14.0,-999.0,70,-99.99,,,-99.99,,2013-02-20 17:42:00,
2013-02-20 10:52:00,9.0,1.0,30.17,ESE,122,12.0,-999.0,70,-99.99,,,-99.99,,2013-02-20 17:52:00,
2013-02-20 11:02:00,9.0,1.0,30.16,ESE,123,12.0,-999.0,69,-99.99,,,-99.99,,2013-02-20 18:02:00,
2013-02-20 11:11:00,9.0,1.0,30.16,ESE,123,12.0,-999.0,69,-99.99,,,-99.99,,2013-02-20 18:11:00,
2013-02-20 11:21:00,10.0,2.0,30.16,SE,125,11.0,-999.0,69,-99.99,,,-99.99,,2013-02-20 18:21:00,
2013-02-20 11:32:00,11.0,3.0,30.16,ESE,123,12.0,-999.0,69,-99.99,,,-99.99,,2013-02-20 18:32:00,
2013-02-20 11:42:00,11.0,3.0,30.16,ESE,123,12.0,-999.0,69,-99.99,,,-99.99,,2013-02-20 18:42:00,
2013-02-20 11:52:00,11.0,3.0,30.15,SE,130,12.0,-999.0,69,-99.99,,,-99.99,,2013-02-20 18:52:00,
2013-02-20 12:01:00,12.0,4.0,30.15,SE,128,11.0,-999.0,69,-99.99,,,-99.99,,2013-02-20 19:01:00,
2013-02-20 12:11:00,12.0,4.0,30.15,SE,128,11.0,-999.0,69,-99.99,,,-99.99,,2013-02-20 19:11:00,
2013-02-20 12:21:00,13.0,4.0,30.14,SE,130,11.0,-999.0,68,-99.99,,,-99.99,,2013-02-20 19:21:00,
2013-02-20 12:31:00,13.0,4.0,30.14,SE,130,11.0,-999.0,68,-99.99,,,-99.99,,2013-02-20 19:31:00,
2013-02-20 12:41:00,13.0,4.0,30.14,SE,130,11.0,-999.0,68,-99.99,,,-99.99,,2013-02-20 19:41:00,
2013-02-20 12:52:00,14.0,5.0,30.14,ESE,119,11.0,-999.0,67,-99.99,,,-99.99,,2013-02-20 19:52:00,
2013-02-20 13:01:00,14.0,5.0,30.14,SE,137,10.0,-999.0,67,-99.99,,,-99.99,,2013-02-20 20:01:00,
2013-02-20 13:11:00,14.0,5.0,30.13,SE,128,11.0,-999.0,67,-99.99,,,-99.99,,2013-02-20 20:11:00,
2013-02-20 13:21:00,14.0,5.0,30.13,SE,128,11.0,-999.0,67,-99.99,,,-99.99,,2013-02-20 20:21:00,
2013-02-20 13:31:00,14.0,5.0,30.13,ESE,123,10.0,-999.0,67,-99.99,,,-99.99,,2013-02-20 20:31:00,
2013-02-20 13:41:00,14.0,5.0,30.13,ESE,123,10.0,-999.0,67,-99.99,,,-99.99,,2013-02-20 20:41:00,
2013-02-20 13:52:00,14.0,5.0,30.12,ESE,123,9.0,-999.0,68,-99.99,,,-99.99,,2013-02-20 20:52:00,
2013-02-20 14:01:00,15.0,6.0,30.11,ESE,105,7.0,-999.0,68,-99.99,,,-99.99,,2013-02-20 21:01:00,
2013-02-20 14:11:00,15.0,6.0,30.11,ESE,105,7.0,-999.0,68,-99.99,,,-99.99,,2013-02-20 21:11:00,
2013-02-20 14:21:00,16.0,7.0,30.11,SE,128,8.0,-999.0,67,-99.99,,,-99.99,,2013-02-20 21:21:00,
2013-02-20 14:31:00,16.0,7.0,30.10,ESE,105,6.0,-999.0,67,-99.99,,,-99.99,,2013-02-20 21:31:00,
2013-02-20 14:42:00,16.0,7.0,30.10,ESE,105,6.0,-999.0,67,-99.99,,,-99.99,,2013-02-20 21:42:00,
2013-02-20 14:52:00,17.0,9.0,30.10,ESE,119,5.0,-999.0,69,-99.99,,,-99.99,,2013-02-20 21:52:00,
2013-02-20 15:01:00,18.0,9.0,30.10,ESE,121,7.0,-999.0,66,-99.99,,,-99.99,,2013-02-20 22:01:00,
2013-02-20 15:11:00,18.0,9.0,30.10,ESE,121,7.0,-999.0,66,-99.99,,,-99.99,,2013-02-20 22:11:00,
2013-02-20 15:21:00,19.0,9.0,30.10,SE,126,9.0,-999.0,65,-99.99,,,-99.99,,2013-02-20 22:21:00,
2013-02-20 15:31:00,19.0,9.0,30.10,ESE,121,8.0,-999.0,64,-99.99,,,-99.99,,2013-02-20 22:31:00,
2013-02-20 15:42:00,19.0,9.0,30.10,ESE,121,8.0,-999.0,64,-99.99,,,-99.99,,2013-02-20 22:42:00,
2013-02-20 15:52:00,19.0,9.0,30.10,ESE,121,8.0,-999.0,64,-99.99,,,-99.99,,2013-02-20 22:52:00,
2013-02-20 16:01:00,19.0,9.0,30.10,ESE,119,6.0,-999.0,65,-99.99,,,-99.99,,2013-02-20 23:01:00,
2013-02-20 16:12:00,19.0,9.0,30.10,ESE,119,6.0,-999.0,65,-99.99,,,-99.99,,2013-02-20 23:12:00,
2013-02-20 16:22:00,19.0,9.0,30.10,ESE,119,6.0,-999.0,65,-99.99,,,-99.99,,2013-02-20 23:22:00,
2013-02-20 16:32:00,19.0,10.0,30.10,ESE,119,2.0,-999.0,68,-99.99,,,-99.99,,2013-02-20 23:32:00,
2013-02-20 16:42:00,19.0,10.0,30.10,ESE,119,2.0,-999.0,68,-99.99,,,-99.99,,2013-02-20 23:42:00,
2013-02-20 16:52:00,19.0,10.0,30.09,ESE,119,2.0,-999.0,68,-99.99,,,-99.99,,2013-02-20 23:52:00,
2013-02-20 17:03:00,19.0,10.0,30.09,ESE,119,2.0,-999.0,67,-99.99,,,-99.99,,2013-02-21 00:03:00,
2013-02-20 17:11:00,19.0,10.0,30.09,ESE,119,2.0,-999.0,67,-99.99,,,-99.99,,2013-02-21 00:11:00,
2013-02-20 17:21:00,18.0,9.0,30.09,ESE,119,2.0,-999.0,68,-99.99,,,-99.99,,2013-02-21 00:21:00,
2013-02-20 17:32:00,17.0,8.0,30.09,ESE,119,0.0,-999.0,68,-99.99,,,-99.99,,2013-02-21 00:32:00,
2013-02-20 17:42:00,17.0,8.0,30.09,ESE,119,0.0,-999.0,68,-99.99,,,-99.99,,2013-02-21 00:42:00,
2013-02-20 17:52:00,16.0,8.0,30.10,ESE,119,1.0,-999.0,69,-99.99,,,-99.99,,2013-02-21 00:52:00,
2013-02-20 18:01:00,16.0,8.0,30.10,ESE,119,2.0,-999.0,69,-99.99,,,-99.99,,2013-02-21 01:01:00,
2013-02-20 18:11:00,16.0,8.0,30.10,ESE,119,2.0,-999.0,69,-99.99,,,-99.99,,2013-02-21 01:11:00,
2013-02-20 18:21:00,15.0,7.0,30.10,ESE,119,2.0,-999.0,70,-99.99,,,-99.99,,2013-02-21 01:21:00,
2013-02-20 18:32:00,14.0,6.0,30.11,ESE,119,2.0,-999.0,71,-99.99,,,-99.99,,2013-02-21 01:32:00,
2013-02-20 18:42:00,14.0,6.0,30.11,ESE,119,2.0,-999.0,71,-99.99,,,-99.99,,2013-02-21 01:42:00,
2013-02-20 18:51:00,14.0,6.0,30.10,ESE,119,1.0,-999.0,71,-99.99,,,-99.99,,2013-02-21 01:51:00,
2013-02-20 19:01:00,13.0,5.0,30.10,ESE,119,2.0,-999.0,71,-99.99,,,-99.99,,2013-02-21 02:01:00,
2013-02-20 19:11:00,13.0,5.0,30.10,ESE,119,2.0,-999.0,71,-99.99,,,-99.99,,2013-02-21 02:11:00,
2013-02-20 19:21:00,13.0,5.0,30.11,ESE,119,0.0,-999.0,71,-99.99,,,-99.99,,2013-02-21 02:21:00,
2013-02-20 19:32:00,12.0,5.0,30.11,ESE,119,0.0,-999.0,73,-99.99,,,-99.99,,2013-02-21 02:32:00,
2013-02-20 19:42:00,12.0,5.0,30.11,ESE,119,0.0,-999.0,73,-99.99,,,-99.99,,2013-02-21 02:42:00,
2013-02-20 19:51:00,12.0,5.0,30.11,ESE,119,0.0,-999.0,73,-99.99,,,-99.99,,2013-02-21 02:51:00,
2013-02-20 20:02:00,9.0,2.0,30.11,ESE,119,2.0,-999.0,74,-99.99,,,-99.99,,2013-02-21 03:02:00,
2013-02-20 20:12:00,9.0,2.0,30.11,ESE,119,2.0,-999.0,74,-99.99,,,-99.99,,2013-02-21 03:12:00,
2013-02-20 20:21:00,8.0,1.0,30.11,ESE,119,2.0,-999.0,74,-99.99,,,-99.99,,2013-02-21 03:21:00,
2013-02-20 20:32:00,7.0,0.0,30.12,ESE,119,3.0,-999.0,74,-99.99,,,-99.99,,2013-02-21 03:32:00,
2013-02-20 20:51:00,7.0,1.0,30.12,ESE,119,2.0,-999.0,77,-99.99,,,-99.99,,2013-02-21 03:51:00,
2013-02-20 21:01:00,7.0,2.0,30.12,ESE,119,2.0,-999.0,79,-99.99,,,-99.99,,2013-02-21 04:01:00,
2013-02-20 21:11:00,7.0,2.0,30.12,ESE,119,2.0,-999.0,79,-99.99,,,-99.99,,2013-02-21 04:11:00,
2013-02-20 21:22:00,8.0,3.0,30.12,ESE,119,1.0,-999.0,80,-99.99,,,-99.99,,2013-02-21 04:22:00,
2013-02-20 21:32:00,9.0,4.0,30.12,ESE,119,0.0,-999.0,81,-99.99,,,-99.99,,2013-02-21 04:32:00,
2013-02-20 21:42:00,9.0,4.0,30.12,ESE,119,0.0,-999.0,81,-99.99,,,-99.99,,2013-02-21 04:42:00,
2013-02-20 21:51:00,9.0,4.0,30.12,ESE,119,0.0,-999.0,81,-99.99,,,-99.99,,2013-02-21 04:51:00,
2013-02-20 22:02:00,10.0,5.0,30.13,ESE,119,0.0,-999.0,81,-99.99,,,-99.99,,2013-02-21 05:02:00,
2013-02-20 22:12:00,10.0,5.0,30.13,ESE,119,0.0,-999.0,81,-99.99,,,-99.99,,2013-02-21 05:12:00,
2013-02-20 22:22:00,11.0,6.0,30.13,ESE,119,0.0,-999.0,81,-99.99,,,-99.99,,2013-02-21 05:22:00,
2013-02-20 22:34:00,11.0,6.0,30.14,ESE,119,0.0,-999.0,80,-99.99,,,-99.99,,2013-02-21 05:34:00,
2013-02-20 22:44:00,11.0,6.0,30.14,ESE,119,0.0,-999.0,80,-99.99,,,-99.99,,2013-02-21 05:44:00,
2013-02-20 22:53:00,11.0,6.0,30.13,ESE,119,0.0,-999.0,80,-99.99,,,-99.99,,2013-02-21 05:53:00,
2013-02-20 23:01:00,11.0,6.0,30.13,ESE,119,0.0,-999.0,80,-99.99,,,-99.99,,2013-02-21 06:01:00,
2013-02-20 23:11:00,11.0,6.0,30.13,ESE,119,0.0,-999.0,80,-99.99,,,-99.99,,2013-02-21 06:11:00,
2013-02-20 23:21:00,11.0,6.0,30.14,ESE,119,0.0,-999.0,80,-99.99,,,-99.99,,2013-02-21 06:21:00,
2013-02-20 23:31:00,11.0,6.0,30.14,ESE,119,1.0,-999.0,80,-99.99,,,-99.99,,2013-02-21 06:31:00,
2013-02-20 23:41:00,11.0,6.0,30.14,ESE,119,1.0,-999.0,80,-99.99,,,-99.99,,2013-02-21 06:41:00,
2013-02-20 23:51:00,12.0,7.0,30.14,ESE,119,0.0,-999.0,80,-99.99,,,-99.99,,2013-02-21 06:51:00,